Location: Fluertsh�userhof
(48.7537°N, 10.3850°E)
Time: 15:48:43
(UTC+00:00)

NOSS 3-2 (A) - Pass Details

Date: 18 September 2020
Orbit: 795 x 1413 km, 63.4° (Epoch: 02 October)

Event Time Altitude Azimuth Distance (km) Brightness Sun altitude
Rises 18:09:28 0° 316° (NW) 3,855 7.6 -8.2°
Reaches altitude 10° 18:12:03 10° 322° (NW) 2,984 6.9 -8.7°
Maximum altitude 18:19:09 55° 39° (NE) 1,460 4.3 -9.8°
Enters shadow 18:26:32 13° 115° (ESE) 3,160 5.5 -11.0°
